Погода в Сиэтле

США     47°36′28″N   122°19′42″W
темп.,
°C
ветер,
м/с
пор.,
м/с
влажн.,
%
обл.,
%
осадки,
мм/ч
давл.,
гПа
погр.,
м
19 апреля, пн
пн1923:00+15ююв25452 0.0 1021268
02:00+12ю23542 0.0 1022171
05:00+10ююв12595 0.0 1023122
08:00+12ю11551 0.0 1024212
11:00+19ююз12353 0.0 1024846
14:00+22юз222682 0.0 10231671
17:00+23зюз112589 0.0 10201809
20:00+18сз2442100 0.0 1020147
20 апреля, вт
вт2023:00+14св125553 0.0 1022117
02:00+12в11660 0.0 102240
05:00+10вюв11675 0.0 102233
08:00+12в11555 0.0 1023224
11:00+18с22433 0.0 1022905
14:00+22с34285 0.0 10201794
17:00+21ссз45315 0.0 10181452
20:00+16с26505 0.0 1018274
21 апреля, ср
ср2123:00+13св11645 0.0 101963
02:00+11ююв11715 0.0 101921
05:00+10ююв11755 0.0 101948
08:00+12юз006633 0.0 1019221
11:00+19юз11445 0.0 1018754
14:00+23з12330 0.0 10161713
17:00+23зсз133179 0.0 10132398
20:00+17зсз3449100 0.0 1013339
22 апреля, чт
чт2223:00+13юз246920 0.0 1013343
02:00+10ю358265 0.0 1014487
05:00+10ю3577100 0.0 1014703
08:00+10ю3575100 0.1 1014737
11:00+11ююз3565100 0.1 1015973
14:00+12ююз3558100 0.0 10141258
17:00+14ююз235098 0.0 10131423
20:00+13ююв235490 0.0 101397
23 апреля, пт
пт2323:00+10ююз36729 0.0 1015354
02:00+7ююв25845 0.0 1016239
05:00+8ююв3679100 0.0 1016303
08:00+9ю3869100 0.0 1016533
11:00+14ююз3451100 0.0 10151255
14:00+15зюз4549100 0.0 10141611
17:00+16зюз2347100 0.0 10131547
20:00+13з2459100 0.0 1012234